| time (UTC) | temp C | wind direction | speed KPH | gust KPH | rain 1hr cm | rain 24hr cm | rain mn cm | humidity % | barometer mb |
| 20260506212022 | 8 | 277 | 3.2 | 3.2 | 0.03 | 0.76 | 0.71 | 96 | 1005.1 |
| 20260506211021 | 8 | 277 | 3.2 | 3.2 | 0.03 | 0.76 | 0.71 | 96 | 1004.9 |
| 20260506210023 | 8 | 277 | 3.2 | 3.2 | 0.03 | 0.76 | 0.71 | 96 | 1005.1 |
| 20260506205021 | 8 | 277 | 3.2 | 3.2 | 0.03 | 0.76 | 0.71 | 96 | 1005.0 |
| 20260506204021 | 8 | 277 | 3.2 | 3.2 | 0.00 | 0.81 | 0.69 | 96 | 1004.5 |
| 20260506203021 | 8 | 277 | 3.2 | 3.2 | 0.00 | 0.81 | 0.69 | 96 | 1004.5 |
| 20260506202023 | 8 | 277 | 3.2 | 3.2 | 0.00 | 0.81 | 0.69 | 96 | 1004.5 |
| 20260506201041 | 8 | 277 | 3.2 | 3.2 | 0.00 | 0.81 | 0.69 | 96 | 1004.5 |
| 20260506200022 | 9 | 277 | 3.2 | 3.2 | 0.00 | 0.81 | 0.69 | 96 | 1004.4 |
| 20260506195023 | 9 | 277 | 3.2 | 3.2 | 0.00 | 0.81 | 0.69 | 96 | 1004.3 |
| 20260506194022 | 9 | 277 | 3.2 | 3.2 | 0.00 | 0.81 | 0.69 | 96 | 1004.3 |
| 20260506193024 | 9 | 277 | 3.2 | 3.2 | 0.03 | 0.81 | 0.69 | 96 | 1004.3 |
| 20260506192022 | 9 | 277 | 3.2 | 3.2 | 0.03 | 0.84 | 0.69 | 97 | 1004.2 |
| 20260506191021 | 9 | 277 | 3.2 | 3.2 | 0.03 | 0.84 | 0.69 | 97 | 1004.2 |
| 20260506190021 | 9 | 277 | 3.2 | 3.2 | 0.03 | 0.86 | 0.69 | 96 | 1004.2 |
| 20260506185021 | 9 | 277 | 3.2 | 3.2 | 0.03 | 0.94 | 0.69 | 96 | 1004.0 |
| 20260506184022 | 9 | 277 | 3.2 | 3.2 | 0.05 | 0.94 | 0.69 | 97 | 1004.0 |
| 20260506183023 | 8 | 277 | 3.2 | 3.2 | 0.03 | 0.91 | 0.66 | 96 | 1003.9 |
| 20260506182022 | 9 | 277 | 3.2 | 3.2 | 0.03 | 0.91 | 0.66 | 97 | 1003.7 |
| 20260506181022 | 9 | 277 | 3.2 | 3.2 | 0.05 | 0.94 | 0.66 | 97 | 1003.7 |
| 20260506180026 | 8 | 277 | 3.2 | 3.2 | 0.05 | 0.97 | 0.66 | 96 | 1003.7 |
| 20260506175022 | 8 | 277 | 3.2 | 3.2 | 0.08 | 0.97 | 0.66 | 97 | 1003.8 |
| 20260506174022 | 8 | 277 | 3.2 | 3.2 | 0.08 | 0.94 | 0.64 | 96 | 1003.8 |
| 20260506173023 | 8 | 277 | 3.2 | 3.2 | 0.10 | 0.94 | 0.64 | 96 | 1003.8 |
| 20260506172022 | 8 | 277 | 3.2 | 3.2 | 0.13 | 0.94 | 0.64 | 96 | 1003.7 |
| 20260506171023 | 9 | 277 | 3.2 | 3.2 | 0.13 | 0.91 | 0.61 | 96 | 1003.8 |
| 20260506170022 | 10 | 277 | 3.2 | 3.2 | 0.15 | 0.91 | 0.61 | 96 | 1003.9 |
| 20260506165029 | 10 | 277 | 3.2 | 3.2 | 0.15 | 0.89 | 0.58 | 96 | 1003.9 |
| 20260506164021 | 11 | 277 | 3.2 | 3.2 | 0.15 | 0.86 | 0.56 | 96 | 1003.9 |
| 20260506163022 | 11 | 277 | 3.2 | 3.2 | 0.13 | 0.84 | 0.53 | 96 | 1003.9 |
| 20260506162023 | 11 | 277 | 3.2 | 3.2 | 0.10 | 0.81 | 0.51 | 97 | 1003.9 |
| 20260506161022 | 11 | 277 | 3.2 | 3.2 | 0.08 | 0.79 | 0.48 | 97 | 1004.1 |
| 20260506160021 | 11 | 277 | 3.2 | 3.2 | 0.05 | 0.76 | 0.46 | 97 | 1004.1 |
| 20260506155021 | 11 | 277 | 3.2 | 3.2 | 0.03 | 0.74 | 0.43 | 96 | 1004.1 |
| 20260506154022 | 11 | 277 | 3.2 | 3.2 | 0.03 | 0.71 | 0.41 | 97 | 1004.1 |
| 20260506153021 | 11 | 277 | 3.2 | 3.2 | 0.08 | 0.71 | 0.41 | 97 | 1004.2 |
| 20260506152021 | 11 | 277 | 3.2 | 3.2 | 0.08 | 0.71 | 0.41 | 97 | 1004.2 |
| 20260506151021 | 11 | 277 | 3.2 | 3.2 | 0.10 | 0.71 | 0.41 | 97 | 1004.2 |
| 20260506150022 | 11 | 277 | 3.2 | 3.2 | 0.15 | 0.71 | 0.41 | 97 | 1004.4 |
| 20260506145026 | 11 | 277 | 3.2 | 3.2 | 0.20 | 0.71 | 0.41 | 97 | 1004.4 |
| 20260506144025 | 10 | 277 | 3.2 | 3.2 | 0.18 | 0.69 | 0.38 | 96 | 1004.4 |
| 20260506143023 | 10 | 277 | 3.2 | 3.2 | 0.15 | 0.64 | 0.33 | 96 | 1004.7 |
| 20260506142023 | 10 | 277 | 3.2 | 3.2 | 0.15 | 0.64 | 0.33 | 96 | 1004.7 |
| 20260506141024 | 10 | 277 | 3.2 | 3.2 | 0.13 | 0.61 | 0.30 | 96 | 1005.1 |
| 20260506140024 | 10 | 277 | 3.2 | 3.2 | 0.08 | 0.56 | 0.25 | 96 | 1005.1 |
| 20260506135022 | 10 | 277 | 3.2 | 3.2 | 0.03 | 0.51 | 0.20 | 96 | 1004.8 |
| 20260506134024 | 10 | 277 | 3.2 | 3.2 | 0.03 | 0.51 | 0.20 | 96 | 1004.8 |
| 20260506133022 | 10 | 277 | 3.2 | 3.2 | 0.00 | 0.48 | 0.18 | 96 | 1004.8 |
| 20260506132023 | 10 | 277 | 3.2 | 3.2 | 0.00 | 0.48 | 0.18 | 96 | 1004.9 |
| 20260506131021 | 10 | 277 | 3.2 | 3.2 | 0.00 | 0.48 | 0.18 | 96 | 1004.9 |
| 20260506130021 | 10 | 277 | 3.2 | 3.2 | 0.03 | 0.48 | 0.18 | 96 | 1004.9 |
| 20260506125022 | 10 | 277 | 3.2 | 3.2 | 0.03 | 0.48 | 0.18 | 96 | 1005.1 |
| 20260506124021 | 10 | 277 | 3.2 | 3.2 | 0.05 | 0.48 | 0.18 | 96 | 1005.0 |
| 20260506123022 | 10 | 277 | 3.2 | 3.2 | 0.08 | 0.48 | 0.18 | 96 | 1005.1 |
| 20260506122021 | 10 | 277 | 3.2 | 3.2 | 0.10 | 0.48 | 0.18 | 95 | 1005.2 |
| 20260506121022 | 10 | 277 | 3.2 | 3.2 | 0.10 | 0.48 | 0.18 | 95 | 1005.2 |
| 20260506120022 | 10 | 277 | 3.2 | 3.2 | 0.08 | 0.46 | 0.15 | 95 | 1005.4 |
| 20260506115021 | 10 | 277 | 3.2 | 3.2 | 0.10 | 0.46 | 0.15 | 95 | 1005.6 |
| 20260506114022 | 10 | 277 | 3.2 | 3.2 | 0.08 | 0.43 | 0.13 | 95 | 1005.7 |
| 20260506113058 | 10 | 277 | 3.2 | 3.2 | 0.05 | 0.41 | 0.10 | 95 | 1005.8 |
| 20260506112022 | 10 | 277 | 3.2 | 3.2 | 0.05 | 0.38 | 0.08 | 95 | 1005.8 |
| 20260506111022 | 10 | 277 | 3.2 | 3.2 | 0.05 | 0.38 | 0.08 | 95 | 1005.6 |
| 20260506110024 | 9 | 277 | 3.2 | 3.2 | 0.05 | 0.38 | 0.08 | 95 | 1005.4 |
| 20260506105023 | 9 | 277 | 3.2 | 3.2 | 0.05 | 0.36 | 0.05 | 95 | 1005.5 |
| 20260506104022 | 9 | 277 | 3.2 | 3.2 | 0.05 | 0.36 | 0.05 | 95 | 1005.5 |
| 20260506103022 | 9 | 277 | 3.2 | 3.2 | 0.05 | 0.36 | 0.05 | 95 | 1005.5 |
| 20260506102022 | 9 | 277 | 3.2 | 3.2 | 0.03 | 0.33 | 0.03 | 94 | 1005.5 |
| 20260506101021 | 9 | 277 | 3.2 | 3.2 | 0.03 | 0.33 | 0.03 | 94 | 1005.6 |
| 20260506100022 | 9 | 277 | 3.2 | 3.2 | 0.03 | 0.33 | 0.03 | 94 | 1005.5 |
| 20260506095023 | 9 | 277 | 3.2 | 3.2 | 0.00 | 0.30 | 0.00 | 94 | 1005.6 |
| 20260506094022 | 9 | 277 | 3.2 | 3.2 | 0.00 | 0.30 | 0.00 | 93 | 1005.6 |
| 20260506093022 | 9 | 277 | 3.2 | 3.2 | 0.00 | 0.30 | 0.00 | 93 | 1005.5 |
| 20260506092022 | 9 | 277 | 3.2 | 3.2 | 0.00 | 0.30 | 0.00 | 93 | 1005.4 |
| 20260506091022 | 9 | 277 | 3.2 | 3.2 | 0.00 | 0.30 | 0.00 | 93 | 1005.4 |
| 20260506090023 | 9 | 277 | 3.2 | 3.2 | 0.00 | 0.30 | 0.00 | 92 | 1005.5 |
| 20260506085021 | 10 | 277 | 3.2 | 3.2 | 0.00 | 0.30 | 0.00 | 92 | 1005.5 |
| 20260506084022 | 10 | 277 | 3.2 | 3.2 | 0.00 | 0.30 | 0.00 | 92 | 1005.5 |
| 20260506083022 | 10 | 277 | 3.2 | 3.2 | 0.00 | 0.30 | 0.00 | 92 | 1005.8 |
| 20260506082022 | 10 | 277 | 3.2 | 3.2 | 0.00 | 0.30 | 0.00 | 92 | 1006.1 |
| 20260506081022 | 10 | 277 | 3.2 | 3.2 | 0.00 | 0.30 | 0.00 | 91 | 1006.1 |
| 20260506073023 | 10 | 277 | 3.2 | 3.2 | 0.00 | 0.30 | 0.00 | 90 | 1006.3 |
| 20260506072023 | 10 | 277 | 3.2 | 3.2 | 0.00 | 0.30 | 0.00 | 90 | 1006.5 |
| 20260506071022 | 10 | 277 | 3.2 | 3.2 | 0.00 | 0.30 | 0.00 | 89 | 1006.6 |
| 20260506062022 | 10 | 277 | 3.2 | 3.2 | 0.00 | 0.30 | 0.00 | 89 | 1006.7 |
| 20260506061022 | 10 | 277 | 3.2 | 3.2 | 0.00 | 0.30 | 0.00 | 88 | 1006.7 |
| 20260506051023 | 11 | 277 | 3.2 | 4.8 | 0.00 | 0.30 | 0.00 | 87 | 1007.3 |
| 20260506045022 | 11 | 276 | 3.2 | 4.8 | 0.00 | 0.30 | 0.00 | 87 | 1007.6 |
| 20260506044022 | 12 | 266 | 3.2 | 4.8 | 0.00 | 0.30 | 0.00 | 87 | 1007.4 |
| 20260506043023 | 12 | 291 | 4.8 | 8.0 | 0.00 | 0.30 | 0.00 | 87 | 1007.7 |
| 20260506042022 | 12 | 291 | 3.2 | 4.8 | 0.00 | 0.30 | 0.00 | 87 | 1007.7 |
| 20260506041022 | 12 | 274 | 1.6 | 4.8 | 0.00 | 0.30 | 0.00 | 86 | 1007.9 |
| 20260506040022 | 12 | 303 | 3.2 | 8.0 | 0.00 | 0.30 | 0.00 | 86 | 1007.9 |
| 20260506035022 | 12 | 280 | 3.2 | 8.0 | 0.00 | 0.30 | 0.30 | 86 | 1007.7 |
| 20260506034022 | 12 | 268 | 3.2 | 8.0 | 0.00 | 0.30 | 0.30 | 85 | 1007.7 |
| 20260506033022 | 12 | 302 | 4.8 | 8.0 | 0.00 | 0.30 | 0.30 | 85 | 1007.8 |
| 20260506032022 | 12 | 288 | 4.8 | 9.7 | 0.00 | 0.30 | 0.30 | 84 | 1007.7 |
| 20260506031023 | 12 | 273 | 3.2 | 3.2 | 0.00 | 0.30 | 0.30 | 83 | 1007.7 |
| 20260506030023 | 12 | 232 | 0.0 | 3.2 | 0.00 | 0.30 | 0.30 | 82 | 1007.7 |
| 20260506025022 | 12 | 314 | 4.8 | 12.9 | 0.00 | 0.30 | 0.30 | 82 | 1007.5 |
| 20260506024022 | 12 | 304 | 4.8 | 11.3 | 0.00 | 0.30 | 0.30 | 82 | 1007.6 |
| 20260506023023 | 12 | 292 | 4.8 | 11.3 | 0.00 | 0.30 | 0.30 | 82 | 1007.6 |
| 20260506022023 | 12 | 299 | 3.2 | 9.7 | 0.00 | 0.30 | 0.30 | 82 | 1007.7 |
| 20260506021023 | 12 | 306 | 3.2 | 9.7 | 0.00 | 0.30 | 0.30 | 81 | 1007.7 |
| 20260506020023 | 12 | 309 | 3.2 | 8.0 | 0.00 | 0.30 | 0.30 | 81 | 1007.7 |
| 20260506015022 | 12 | 304 | 6.4 | 11.3 | 0.00 | 0.30 | 0.30 | 81 | 1007.7 |
| 20260506014021 | 13 | 321 | 8.0 | 22.5 | 0.00 | 0.30 | 0.30 | 80 | 1007.3 |
| 20260506013022 | 13 | 291 | 8.0 | 20.9 | 0.00 | 0.30 | 0.30 | 81 | 1006.9 |
| 20260506012022 | 13 | 283 | 6.4 | 14.5 | 0.00 | 0.30 | 0.30 | 82 | 1006.8 |
| 20260506011022 | 15 | 329 | 8.0 | 19.3 | 0.00 | 0.30 | 0.30 | 83 | 1006.5 |
| 20260506010022 | 15 | 319 | 8.0 | 14.5 | 0.00 | 0.30 | 0.30 | 84 | 1006.0 |
| 20260506005021 | 16 | 331 | 4.8 | 12.9 | 0.03 | 0.30 | 0.30 | 85 | 1005.9 |
| 20260506004022 | 16 | 293 | 4.8 | 8.0 | 0.03 | 0.30 | 0.30 | 84 | 1005.4 |
| 20260506003022 | 16 | 312 | 4.8 | 11.3 | 0.03 | 0.30 | 0.30 | 83 | 1005.2 |
| 20260506002021 | 16 | 308 | 3.2 | 11.3 | 0.03 | 0.30 | 0.30 | 82 | 1005.2 |
| 20260506001022 | 16 | 298 | 4.8 | 11.3 | 0.03 | 0.30 | 0.30 | 82 | 1005.3 |
| 20260506000023 | 16 | 304 | 4.8 | 12.9 | 0.03 | 0.30 | 0.30 | 82 | 1004.7 |
| 20260505235021 | 17 | 289 | 9.7 | 12.9 | 0.00 | 0.28 | 0.28 | 79 | 1004.7 |
| 20260505234023 | 17 | 276 | 8.0 | 12.9 | 0.00 | 0.28 | 0.28 | 77 | 1004.7 |
| 20260505233023 | 17 | 289 | 4.8 | 9.7 | 0.00 | 0.28 | 0.28 | 76 | 1004.6 |
| 20260505232022 | 17 | 265 | 4.8 | 12.9 | 0.00 | 0.28 | 0.28 | 76 | 1004.3 |
| 20260505231022 | 17 | 287 | 4.8 | 12.9 | 0.00 | 0.28 | 0.28 | 76 | 1004.3 |
| 20260505230024 | 17 | 260 | 4.8 | 11.3 | 0.00 | 0.28 | 0.28 | 78 | 1004.3 |
| 20260505225022 | 17 | 281 | 6.4 | 11.3 | 0.00 | 0.28 | 0.28 | 78 | 1004.1 |
| 20260505224022 | 17 | 226 | 8.0 | 12.9 | 0.00 | 0.28 | 0.28 | 79 | 1004.1 |
| 20260505223022 | 17 | 216 | 4.8 | 11.3 | 0.00 | 0.28 | 0.28 | 80 | 1004.2 |
| 20260505222022 | 17 | 242 | 8.0 | 14.5 | 0.03 | 0.28 | 0.28 | 81 | 1004.2 |
| 20260505221023 | 16 | 228 | 6.4 | 14.5 | 0.03 | 0.28 | 0.28 | 82 | 1004.3 |
| 20260505220022 | 16 | 231 | 4.8 | 11.3 | 0.03 | 0.28 | 0.28 | 82 | 1004.4 |
| 20260505215022 | 16 | 229 | 9.7 | 14.5 | 0.03 | 0.28 | 0.28 | 82 | 1004.4 |
| 20260505214023 | 16 | 240 | 9.7 | 16.1 | 0.08 | 0.28 | 0.28 | 82 | 1004.4 |
| 20260505213023 | 16 | 261 | 11.3 | 20.9 | 0.10 | 0.28 | 0.28 | 82 | 1004.5 |